Weather History for Elefsis, Greece

Change the Weather History Date:

Tuesday, September 17, 2013

  Actual Average Record
Temperature  
Mean Temperature 77 °F -  
Max Temperature 86 °F 76 °F 93 °F (2011)
Min Temperature 68 °F 60 °F 57 °F (1998)
Cooling Degree Days 12    
Growing Degree Days 27 (Base 50)    
Moisture  
Dew Point 56 °F    
Average Humidity 47    
Maximum Humidity 64    
Minimum Humidity 25    
Precipitation  
Precipitation 0.00 in - - ()
Sea Level Pressure  
Sea Level Pressure 29.67 in    
Wind  
Wind Speed 5 mph ()    
Max Wind Speed 16 mph    
Max Gust Speed -    
Visibility 6.2 miles    
Events      
Averages and records for this station are not official NWS values.
T = Trace of Precipitation, MM = Missing Value Source: Averaged Metar Reports

Daily Weather History Graph

Daily Weather History Graph

Search for Another Location

Airport:

Trip Planner

Search our weather history database for the weather conditions in past years. The results will help you decide how hot, cold, wet, or windy it might be!

Date:

Astronomy

Sep. 17, 2013 Rise Set
Actual Time 7:09 AM EEST 7:30 PM EEST
Civil Twilight 6:42 AM EEST 7:57 PM EEST
Nautical Twilight 6:11 AM EEST 8:27 PM EEST
Astronomical Twilight 5:40 AM EEST 8:59 PM EEST
Moon 6:05 PM EEST 4:43 AM EEST
Length of Visible Light 13h 14m
Length of Day
12h 21m
Waxing Gibbous, 94% of the Moon is Illuminated
Sep 17
Waxing Gibbous
Sep 19
Full
Sep 27
Last Quarter
Oct 5
New
Oct 12
First Quarter

Hourly Weather History & Observations

Time (EEST) Temp. Heat Index Dew Point Humidity Pressure Visibility Wind Dir Wind Speed Gust Speed Precip Events Conditions
12:50 AM 73.4 °F - 55.4 °F 53% 29.71 in 6.2 mi NNW 9.2 mph - N/A   Partly Cloudy
2:50 AM 71.6 °F - 57.2 °F 60% 29.68 in 6.2 mi North 5.8 mph - N/A   Partly Cloudy
3:50 AM 71.6 °F - 55.4 °F 57% 29.68 in 6.2 mi Calm Calm - N/A   Partly Cloudy
4:50 AM 69.8 °F - 55.4 °F 60% 29.68 in - NNW 4.6 mph - N/A   Clear
5:50 AM 69.8 °F - 55.4 °F 60% 29.68 in - Calm Calm - N/A   Clear
6:20 AM 68.0 °F - 55.4 °F 64% 29.68 in - Calm Calm - N/A   Clear
6:50 AM 68.0 °F - 55.4 °F 64% 29.68 in - NNW 4.6 mph - N/A   Clear
7:20 AM 69.8 °F - 57.2 °F 64% 29.68 in - NNW 4.6 mph - N/A   Clear
7:50 AM 69.8 °F - 57.2 °F 64% 29.68 in - Calm Calm - N/A   Clear
8:20 AM 73.4 °F - 57.2 °F 57% 29.68 in - Variable 3.5 mph - N/A   Clear
8:50 AM 73.4 °F - 55.4 °F 53% 29.68 in - Calm Calm - N/A   Clear
9:20 AM 77.0 °F - 55.4 °F 47% 29.68 in - Calm Calm - N/A   Clear
9:50 AM 77.0 °F - 57.2 °F 50% 29.71 in - Calm Calm - N/A   Clear
10:20 AM 80.6 °F 80.5 °F 55.4 °F 42% 29.71 in - South 4.6 mph - N/A   Clear
10:50 AM 80.6 °F 80.5 °F 55.4 °F 42% 29.71 in 6.2 mi West 5.8 mph - N/A   Partly Cloudy
11:20 AM 82.4 °F 81.4 °F 53.6 °F 37% 29.71 in 6.2 mi West 5.8 mph - N/A   Scattered Clouds
11:50 AM 82.4 °F 81.4 °F 53.6 °F 37% 29.71 in 6.2 mi SW 11.5 mph - N/A   Scattered Clouds
12:20 PM 84.2 °F - 50.0 °F 30% 29.68 in 6.2 mi SW 5.8 mph - N/A   Scattered Clouds
12:50 PM 86.0 °F - 48.2 °F 27% 29.68 in 6.2 mi SSW 8.1 mph - N/A   Scattered Clouds
1:20 PM 86.0 °F - 46.4 °F 25% 29.68 in 6.2 mi West 10.4 mph - N/A   Scattered Clouds
1:50 PM 86.0 °F - 46.4 °F 25% 29.68 in 6.2 mi WNW 12.7 mph - N/A   Scattered Clouds
2:20 PM 84.2 °F - 51.8 °F 33% 29.65 in 6.2 mi WNW 11.5 mph - N/A   Scattered Clouds
2:50 PM 86.0 °F - 50.0 °F 29% 29.65 in 6.2 mi SW 12.7 mph - N/A   Scattered Clouds
3:20 PM 86.0 °F - 51.8 °F 31% 29.65 in 6.2 mi SSW 15.0 mph - N/A   Scattered Clouds
3:50 PM 84.2 °F 83.0 °F 55.4 °F 37% 29.65 in 6.2 mi South 12.7 mph - N/A   Scattered Clouds
4:20 PM 84.2 °F 83.5 °F 57.2 °F 40% 29.65 in 6.2 mi South 16.1 mph - N/A   Scattered Clouds
4:50 PM 84.2 °F 83.8 °F 59.0 °F 42% 29.65 in 6.2 mi South 15.0 mph - N/A   Scattered Clouds
5:20 PM 82.4 °F 82.5 °F 59.0 °F 45% 29.65 in 6.2 mi South 13.8 mph - N/A   Scattered Clouds
5:50 PM 80.6 °F 81.5 °F 60.8 °F 51% 29.65 in 6.2 mi South 12.7 mph - N/A   Scattered Clouds
6:20 PM 78.8 °F - 60.8 °F 54% 29.65 in 6.2 mi South 11.5 mph - N/A   Scattered Clouds
6:50 PM 78.8 °F - 60.8 °F 54% 29.62 in 6.2 mi South 8.1 mph - N/A   Scattered Clouds
7:20 PM 78.8 °F - 59.0 °F 51% 29.65 in 6.2 mi South 6.9 mph - N/A   Scattered Clouds
7:50 PM 77.0 °F - 62.6 °F 61% 29.65 in 6.2 mi NE 4.6 mph - N/A   Scattered Clouds
8:20 PM 77.0 °F - 60.8 °F 57% 29.65 in 6.2 mi SSE 3.5 mph - N/A   Scattered Clouds
8:50 PM 77.0 °F - 62.6 °F 61% 29.65 in 6.2 mi SSE 3.5 mph - N/A   Scattered Clouds
9:20 PM 78.8 °F - 57.2 °F 47% 29.65 in 6.2 mi SW 6.9 mph - N/A   Partly Cloudy
9:50 PM 77.0 °F - 57.2 °F 50% 29.65 in 6.2 mi SW 5.8 mph - N/A   Partly Cloudy
10:20 PM 77.0 °F - 53.6 °F 44% 29.65 in 6.2 mi WSW 4.6 mph - N/A   Partly Cloudy
10:50 PM 75.2 °F - 53.6 °F 47% 29.68 in - Calm Calm - N/A   Clear
11:20 PM 75.2 °F - 53.6 °F 47% 29.68 in - West 4.6 mph - N/A   Clear
11:50 PM 77.0 °F - 51.8 °F 41% 29.68 in - SSW 3.5 mph - N/A   Clear